CAPE
0 0 0 0 0 0 0 0 0 0 0 0 0 0 0 0 0 0 0 0 0 4 10 15 15 16 17 19 5 10 9 3 8 8 13 26 13 7 7 18 12 1 0
0 0 0 0 0 0 0 0 0 0 0 0 0 0 0 0 0 0 0 0 0 0 6 3 7 14 15 14 13 17 32 13 18 39 25 21 31 7 25 18 16 15 6
0 0 0 0 0 0 0 0 0 0 0 0 0 0 0 0 0 0 0 0 0 0 0 0 6 12 15 15 13 15 50 43 42 46 48 33 19 33 29 20 26 12 5
0 0 0 0 0 0 0 0 0 0 0 0 0 0 0 0 0 0 0 0 0 0 0 0 3 12 15 18 16 48 53 56 40 42 28 55 46 25 40 37 14 4 7
0 0 0 0 0 0 0 0 0 0 0 0 0 0 0 0 0 0 0 0 0 0 0 0 0 0 2 12 14 25 27 34 36 33 27 29 33 37 31 20 29 30 10
0 0 0 0 0 0 0 0 0 0 0 0 0 0 0 0 0 0 0 0 0 0 0 0 0 0 0 5 8 10 28 45 45 43 24 16 15 22 29 27 29 29 33
0 0 0 0 0 0 0 0 0 0 0 0 0 0 0 0 0 0 0 0 0 0 0 0 0 0 0 0 0 9 14 25 25 41 42 35 36 17 27 27 24 21 31
0 0 0 0 0 0 0 0 0 0 0 0 0 0 0 0 0 0 0 0 0 0 0 0 0 0 0 0 0 0 5 22 17 32 48 52 52 61 32 35 42 25 32
0 0 0 0 0 0 0 0 0 0 0 0 0 0 0 0 0 0 0 0 0 0 0 0 0 0 0 0 0 0 3 35 20 26 31 44 50 56 67 44 42 41 21
0 0 0 0 0 0 0 0 0 0 0 0 0 0 0 0 0 0 0 0 0 0 0 0 0 0 0 0 0 0 1 11 17 26 42 55 31 59 69 49 36 57 39
0 0 0 0 0 0 0 0 0 0 0 0 0 0 0 0 0 0 0 0 0 0 0 0 0 0 0 0 0 0 18 2 1 18 16 65 57 50 47 34 60 26 27
0 0 0 0 0 0 0 0 0 0 0 0 0 0 0 0 0 0 0 0 0 0 0 0 0 0 0 0 0 0 7 0 0 7 16 25 86 48 22 49 25 28 2
0 0 0 0 0 0 0 0 0 0 0 0 0 0 0 0 0 0 0 0 0 0 0 0 0 0 0 0 0 0 0 0 0 4 13 20 75 58 20 25 23 6 4
0 0 0 0 0 0 0 0 0 0 0 0 0 0 0 0 0 0 0 0 0 2 0 0 0 0 0 0 0 1 0 0 5 5 14 21 45 24 37 14 31 4 14
0 0 0 0 0 0 0 0 0 0 0 0 0 0 0 0 0 0 0 0 0 1 1 0 0 0 0 0 0 0 0 0 1 3 13 18 21 27 52 30 48 8 20
0 0 0 0 0 0 0 0 0 0 0 0 0 0 0 0 0 0 0 0 0 0 1 0 0 0 0 0 0 0 0 0 0 2 10 18 17 29 40 32 33 18 9
0 0 0 0 0 0 0 0 0 0 0 0 0 0 0 0 0 0 0 0 0 0 1 0 0 0 0 0 0 0 0 0 0 1 4 5 12 38 29 30 25 58 6
0 0 0 0 0 0 0 0 0 0 0 0 0 0 0 0 0 0 0 0 0 0 3 0 0 0 0 0 0 0 0 0 0 1 0 1 7 29 31 16 17 19 22
0 0 0 0 0 0 0 0 0 0 0 0 0 0 0 0 0 0 0 0 0 1 3 3 0 0 0 0 1 0 0 0 0 0 0 0 9 15 28 18 10 6 7
0 0 0 0 0 0 0 0 0 0 0 0 0 0 0 0 0 0 0 0 0 2 0 0 0 0 0 0 0 0 0 0 0 0 0 0 0 3 3 13 11 10 4
0 0 0 0 0 0 0 0 0 0 0 0 0 0 0 0 0 7 0 0 0 0 0 3 0 0 0 0 0 0 0 0 0 0 0 0 0 0 2 1 4 5 12
0 0 0 0 0 0 0 0 0 0 0 0 0 0 0 0 0 0 0 0 5 0 0 0 0 0 0 0 0 0 0 0 0 0 0 0 0 0 0 1 1 9 6
0 0 0 0 0 0 0 0 0 0 0 0 0 0 0 0 0 0 0 0 0 0 0 1 0 0 0 0 0 0 0 0 0 0 0 0 0 0 0 0 5 1 2
0 0 0 0 0 0 0 0 0 0 0 0 0 0 0 0 0 0 0 0 0 0 0 0 0 0 0 0 0 0 0 0 0 0 0 0 0 0 0 0 0 2 3
0 0 0 0 0 0 0 0 0 0 0 0 0 0 0 0 0 0 0 0 0 0 0 0 0 1 4 5 0 0 0 0 0 0 0 0 0 0 0 0 0 0 0
0 0 0 0 0 0 0 0 0 0 0 0 0 0 0 0 0 0 0 0 0 0 0 0 0 0 0 0 0 0 0 0 0 0 0 0 0 0 0 0 0 0 0
CIN
-0 -0 -0 -0 -0 -0 -0 -0 -0 -0 -0 -0 -0 -0 -0 -0 -0 -0 -0 -0 -0 -0 -0 -0 -0 -0 -1 -1 -0 -0 -1 -0 -0 -0 -1 -0 -1 -0 -1 -0 -0 -0 -0
-0 -0 -0 -0 -0 -0 -0 -0 -0 -0 -0 -0 -0 -0 -0 -0 -0 -0 -0 -0 -0 -0 -0 -0 -0 -0 -0 -1 -1 -1 -1 -2 -0 -0 -0 -0 -1 -0 -0 -0 -0 -0 -0
-0 -0 -0 -0 -0 -0 -0 -0 -0 -0 -0 -0 -0 -0 -0 -0 -0 -0 -0 -0 -0 -0 -0 -0 -0 -0 -0 -0 -0 -0 -0 -1 -0 -0 -0 -1 -1 -0 -0 -0 -1 -1 -4
-0 -0 -0 -0 -0 -0 -0 -0 -0 -0 -0 -0 -0 -0 -0 -0 -0 -0 -0 -0 -0 -0 -0 -0 -0 -0 -0 -0 -0 -0 -0 -0 -0 -0 -1 -0 -0 -1 -0 -1 -2 -1 -1
-0 -0 -0 -0 -0 -0 -0 -0 -0 -0 -0 -0 -0 -0 -0 -0 -0 -0 -0 -0 -0 -0 -0 -0 -0 -0 -0 -0 -0 -0 -0 -1 -0 -0 -0 -1 -1 -0 -0 -1 -1 -1 -1
-0 -0 -0 -0 -0 -0 -0 -0 -0 -0 -0 -0 -0 -0 -0 -0 -0 -0 -0 -0 -0 -0 -0 -0 -0 -0 -0 -0 -0 -0 -0 -0 -0 -0 -0 -0 -0 -1 -1 -1 -0 -1 -0
-0 -0 -0 -0 -0 -0 -0 -0 -0 -0 -0 -0 -0 -0 -0 -0 -0 -0 -0 -0 -0 -0 -0 -0 -0 -0 -0 -0 -0 -0 -0 -0 -0 -0 -1 -0 -0 -0 -1 -0 -1 -1 -1
-0 -0 -0 -0 -0 -0 -0 -0 -0 -0 -0 -0 -0 -0 -0 -0 -0 -0 -0 -0 -0 -0 -0 -0 -0 -0 -0 -0 -0 -0 -0 -0 -0 -0 -0 -0 -1 -0 -1 -0 -1 -1 -1
-0 -0 -0 -0 -0 -0 -0 -0 -0 -0 -0 -0 -0 -0 -0 -0 -0 -0 -0 -0 -0 -0 -0 -0 -0 -0 -0 -0 -0 -0 -5 -0 -2 -0 -0 -0 -1 -0 -0 -0 -0 -0 -0
-0 -0 -0 -0 -0 -0 -0 -0 -0 -0 -0 -0 -0 -0 -0 -0 -0 -0 -0 -0 -0 -0 -0 -0 -0 -0 -0 -0 -0 -0 -0 -0 -0 -0 -0 -0 -0 -0 -0 -0 -0 -1 -0
-0 -0 -0 -0 -0 -0 -0 -0 -0 -0 -0 -0 -0 -0 -0 -0 -0 -0 -0 -0 -0 -0 -0 -0 -0 -0 -0 -0 -0 -0 -0 -0 -0 -0 -0 -0 -0 -0 -0 -39 -0 -0 -1
-0 -0 -0 -0 -0 -0 -0 -0 -0 -0 -0 -0 -0 -0 -0 -0 -0 -0 -0 -0 -0 -0 -0 -0 -0 -0 -0 -0 -0 -0 -0 -0 -0 -0 -0 -1 -0 -0 -0 -0 -0 -3 -1
-0 -0 -0 -0 -0 -0 -0 -0 -0 -0 -0 -0 -0 -0 -0 -0 -0 -0 -0 -0 -0 -0 -0 -0 -0 -0 -0 -0 -0 -0 -0 -0 -0 -0 -0 -0 -0 -0 -0 -0 -0 -0 -1
-0 -0 -0 -0 -0 -0 -0 -0 -0 -0 -0 -0 -0 -0 -0 -0 -0 -0 -0 -0 -0 -0 -0 -0 -0 -0 -0 -0 -0 -0 -0 -0 -0 -0 -0 -0 -0 -0 -0 -0 -0 -1 -0
-0 -0 -0 -0 -0 -0 -0 -0 -0 -0 -0 -0 -0 -0 -0 -0 -0 -0 -0 -0 -0 -0 -3 -0 -0 -0 -0 -0 -0 -0 -0 -0 -0 -0 -0 -0 -0 -0 -0 -0 -0 -0 -0
-0 -0 -0 -0 -0 -0 -0 -0 -0 -0 -0 -0 -0 -0 -0 -0 -0 -0 -0 -0 -0 -0 -0 -0 -0 -14 -15 -0 -0 -0 -0 -0 -0 -0 -0 -0 -0 -0 -0 -0 -0 -0 -0
-0 -0 -0 -0 -0 -0 -0 -0 -0 -0 -0 -0 -0 -0 -0 -0 -0 -0 -0 -0 -0 -0 -1 -0 -0 -7 -0 -0 -0 -0 -0 -0 -0 -0 -0 -0 -0 -0 -0 -0 -0 -0 -3
-0 -0 -0 -0 -0 -0 -0 -0 -0 -0 -0 -0 -0 -0 -0 -0 -0 -0 -0 -0 -0 -0 -6 -3 -11 -0 -0 -0 -0 -0 -0 -0 -0 -0 -0 -0 -0 -0 -0 -0 -0 -0 -0
-0 -0 -0 -0 -0 -0 -0 -0 -0 -0 -0 -0 -0 -0 -0 -0 -0 -0 -0 -0 -0 -9 -11 -9 -0 -0 -0 -0 -9 -0 -0 -0 -0 -0 -0 -0 -0 -0 -0 -0 -0 -1 -0
-0 -0 -0 -0 -0 -0 -0 -0 -0 -0 -0 -0 -0 -0 -0 -0 -0 -0 -0 -0 -4 -5 -6 -4 -0 -0 -0 -0 -0 -0 -6 -0 -0 -0 -0 -0 -0 -0 -0 -0 -0 -0 -0
-0 -0 -0 -0 -0 -0 -0 -0 -0 -0 -0 -0 -0 -0 -0 -0 -0 -0 -0 -0 -1 -0 -1 -4 -0 -0 -0 -0 -0 -0 -0 -0 -0 -0 -0 -0 -0 -0 -3 -0 -0 -0 -0
-0 -0 -0 -0 -0 -0 -0 -0 -0 -0 -0 -0 -0 -0 -0 -0 -0 -0 -0 -0 -1 -0 -0 -0 -0 -0 -0 -0 -0 -0 -0 -0 -0 -0 -0 -0 -0 -0 -0 -1 -0 -0 -0
-0 -0 -0 -0 -0 -0 -0 -0 -0 -0 -0 -0 -0 -0 -0 -0 -0 -0 -0 -0 -0 -0 -0 -3 -0 -0 -0 -0 -0 -0 -0 -0 -0 -0 -0 -0 -0 -0 -0 -0 -0 -0 -0
-0 -0 -0 -0 -0 -0 -0 -0 -0 -0 -0 -0 -0 -0 -0 -0 -0 -0 -0 -0 -0 -0 -0 -0 -0 -1 -0 -0 -0 -0 -0 -0 -0 -0 -0 -0 -0 -0 -0 -0 -0 -0 -0
-0 -0 -0 -0 -0 -0 -0 -0 -0 -0 -0 -0 -0 -0 -0 -0 -0 -0 -0 -0 -0 -0 -0 -0 -0 -0 -0 -0 -0 -0 -0 -0 -0 -0 -0 -0 -0 -0 -0 -0 -0 -0 -0
-0 -0 -0 -0 -0 -0 -0 -0 -0 -0 -0 -0 -0 -0 -0 -0 -0 -0 -0 -0 -0 -0 -0 -0 -0 -0 -0 -0 -0 -0 -0 -0 -0 -0 -0 -0 -0 -0 -0 -0 -0 -0 -0
Wind_Speed
19 19 21 21 22 23 24 27 28 28 30 32 33 33 32 31 31 29 29 32 32 33 33 34 35 36 37 39 39 40 41 42 43 42 42 43 43 44 44 45 45 46 48
19 20 21 22 22 22 22 23 25 26 28 29 30 30 30 29 31 31 31 32 33 32 34 36 36 38 39 39 40 41 41 40 41 41 43 42 43 44 45 46 48 47 48
18 20 21 22 22 21 22 22 23 26 27 27 28 29 28 28 31 31 32 33 33 33 35 36 37 38 38 40 41 41 40 39 40 41 42 43 44 45 47 48 49 50 49
17 18 20 21 21 22 23 24 25 28 29 31 31 31 27 26 32 29 32 32 33 34 34 36 37 38 38 39 40 41 41 41 41 42 43 44 45 46 47 49 51 52 52
15 17 18 20 20 22 24 25 25 28 30 33 31 30 26 23 32 29 32 34 34 34 32 33 35 36 37 38 39 40 41 42 43 43 44 46 47 48 50 51 52 54 54
13 15 17 17 19 21 23 26 26 27 28 31 30 31 25 24 23 30 29 34 35 34 33 33 32 31 36 38 39 40 40 40 41 42 44 45 47 50 53 53 54 55 56
11 12 14 15 18 20 22 24 25 27 29 32 31 31 26 24 20 23 24 32 36 35 34 34 32 31 31 37 38 38 39 39 40 42 44 46 49 52 53 54 56 57 58
8 9 11 13 16 18 20 22 25 26 26 31 31 29 31 27 23 20 21 27 36 36 36 34 33 33 32 33 35 37 37 37 41 41 44 47 49 49 49 50 53 57 59
6 7 9 10 13 15 17 19 22 24 26 26 28 27 29 28 28 19 20 25 32 34 35 34 32 32 30 31 35 35 35 39 38 41 43 44 46 45 43 45 51 58 63
5 6 7 8 10 12 14 16 19 20 22 25 25 22 21 20 25 24 20 21 26 30 31 32 31 29 30 30 34 35 37 38 38 40 41 43 44 43 42 45 53 56 56
4 5 6 7 7 9 11 14 16 17 19 20 23 23 23 22 18 19 22 23 23 27 29 28 31 29 30 29 33 34 37 38 38 39 40 42 43 41 40 43 49 48 50
3 3 4 6 6 8 9 11 15 16 17 17 20 20 20 22 22 20 20 22 22 25 27 28 29 30 28 28 33 37 37 39 38 37 38 40 42 39 38 41 46 49 54
2 2 3 5 5 7 8 10 13 15 16 17 17 20 19 18 18 18 19 20 22 23 25 28 27 27 28 28 30 38 38 38 34 34 37 39 39 38 37 40 45 53 57
1 2 2 3 4 6 7 9 12 14 15 16 16 18 19 18 17 17 18 20 23 22 23 26 28 26 27 29 29 36 36 32 28 31 33 36 35 35 34 36 42 50 57
0 1 1 3 3 5 6 8 10 12 15 16 16 16 19 19 17 17 16 15 19 26 25 26 30 26 23 28 24 33 28 24 27 27 30 30 30 29 28 28 33 40 44
1 1 3 3 3 4 6 8 9 11 14 16 16 17 18 19 18 17 16 15 15 19 22 23 26 23 22 27 17 25 24 26 26 28 30 31 31 31 29 30 36 35 31
2 2 2 4 4 5 6 7 8 10 12 15 16 17 18 19 18 18 18 16 16 18 20 21 24 24 23 21 13 25 25 24 26 28 29 30 31 32 32 32 31 30 30
4 3 3 4 5 6 7 7 9 10 12 14 16 18 19 19 18 18 18 17 17 17 18 20 26 28 25 25 20 27 25 25 26 28 29 28 30 33 32 32 31 29 23
6 5 5 5 5 6 7 8 8 9 11 13 15 18 19 18 18 18 19 17 17 18 16 19 26 25 23 22 29 27 26 28 26 29 28 27 28 29 31 31 31 22 25
8 7 6 6 6 7 8 9 9 9 10 12 13 16 18 18 17 17 18 17 17 19 17 18 23 20 18 16 11 21 27 28 27 29 27 27 26 28 30 29 31 25 18
10 9 8 8 8 8 8 9 9 9 10 12 12 14 16 17 15 15 18 17 17 19 17 17 17 16 13 11 14 11 3 21 24 27 27 25 26 26 28 30 30 28 27
12 11 11 10 9 9 9 9 9 10 10 10 12 13 15 16 16 15 17 15 16 19 15 17 12 6 8 8 12 4 5 8 14 26 23 25 26 27 28 29 29 28 27
14 13 12 11 11 10 9 10 9 10 10 9 11 12 15 16 16 14 16 16 16 14 10 10 6 3 5 10 10 9 8 10 9 1 20 20 25 26 27 28 29 27 26
15 15 14 13 12 12 10 10 10 10 10 9 10 11 13 15 14 13 15 14 14 14 9 6 6 5 4 4 10 11 9 7 9 12 26 5 19 20 25 25 27 25 25
16 16 16 14 13 13 11 11 10 11 11 10 9 9 11 12 12 11 12 12 13 12 9 7 9 8 6 4 10 9 8 10 13 13 13 11 12 5 3 24 26 26 25
15 17 16 15 14 14 12 11 10 11 11 11 10 9 8 10 11 10 10 10 9 10 9 9 9 9 8 8 9 10 11 10 10 11 13 8 9 10 11 12 22 24 24
Wind_Direction
57 54 47 44 40 36 32 27 25 24 18 11 7 6 2 1 358 357 351 341 335 331 327 322 317 312 308 303 301 299 296 293 289 286 285 283 280 277 276 274 272 269 267
56 50 45 41 39 35 34 32 29 25 20 17 15 13 9 7 2 357 351 343 337 332 326 321 317 312 307 306 303 299 296 294 291 288 285 284 281 278 276 274 272 271 268
52 46 43 38 35 35 32 31 29 24 22 21 18 15 13 12 6 4 354 344 341 338 331 325 318 313 310 306 302 299 298 296 293 291 288 284 282 280 276 274 272 269 268
52 47 42 38 34 33 31 29 25 21 21 17 14 12 15 18 13 12 2 353 350 346 340 331 323 317 311 306 305 300 297 296 295 291 289 286 283 281 278 275 272 269 268
51 47 42 38 36 32 29 27 26 22 18 14 14 14 17 18 15 14 5 356 356 352 350 349 338 327 317 310 306 303 299 294 291 292 292 287 283 282 280 276 273 270 267
53 46 41 40 36 31 28 24 23 21 19 15 16 16 20 18 18 15 10 357 355 355 353 351 351 348 331 318 310 305 302 298 295 293 291 290 286 282 279 277 275 270 266
52 50 43 40 35 32 28 25 22 19 18 15 16 16 20 20 22 19 20 5 357 355 354 352 354 350 346 330 320 311 307 301 297 296 295 293 290 286 281 277 275 272 266
60 52 46 40 36 31 27 24 21 20 21 17 18 19 16 20 20 28 24 15 2 357 353 351 352 349 346 339 328 320 314 308 302 300 298 298 295 290 285 282 278 272 267
66 54 47 41 35 31 28 25 21 21 19 20 20 22 19 18 12 24 22 18 10 3 357 352 353 351 350 345 330 325 319 313 308 306 306 303 303 295 291 291 287 277 267
69 54 46 41 36 31 29 25 22 21 20 18 20 26 22 18 18 15 19 16 13 8 2 360 356 353 349 345 334 323 318 316 309 308 310 311 308 303 294 297 296 286 275
75 55 47 41 37 32 28 24 20 19 20 18 19 19 19 19 18 12 4 7 12 10 5 2 358 354 348 346 335 330 317 316 310 310 312 312 312 311 304 304 305 300 285
77 67 53 43 37 32 27 23 19 17 16 17 17 17 16 16 13 11 6 4 4 9 7 5 3 358 354 349 338 327 319 314 310 310 313 317 315 314 311 310 313 310 300
68 73 62 41 38 31 26 21 16 14 13 13 15 14 14 12 12 9 6 3 4 5 9 6 8 6 360 350 344 325 325 314 308 310 312 317 321 324 321 319 318 318 305
84 85 73 48 37 29 24 19 14 12 10 9 9 11 10 8 10 10 9 6 3 8 10 7 8 10 6 355 349 331 329 301 293 301 309 316 323 324 328 330 328 331 317
172 91 67 30 26 22 19 15 10 8 9 7 6 7 7 8 10 9 9 9 7 4 4 10 6 10 10 3 3 341 292 280 295 298 308 309 317 319 324 325 328 335 346
245 342 6 12 12 12 13 12 7 7 6 5 5 5 5 6 8 9 8 7 8 4 3 7 6 8 12 6 16 294 289 293 295 302 312 320 322 325 326 332 343 353 356
249 304 328 348 354 358 5 5 3 4 3 3 5 3 2 5 6 7 9 9 8 8 4 7 8 11 13 16 23 296 294 292 299 311 317 323 330 335 337 339 344 356 355
265 275 311 329 341 348 355 358 358 2 2 1 2 4 2 6 5 7 8 8 8 9 10 7 11 14 19 19 24 304 298 302 306 313 320 325 339 345 347 345 347 347 350
278 286 305 314 327 337 346 351 353 356 358 0 2 3 3 5 4 6 8 8 9 12 16 15 12 20 26 28 320 314 308 315 324 324 322 326 345 346 351 348 347 340 350
283 288 293 304 319 331 340 345 350 352 354 358 0 1 3 4 4 5 7 7 9 10 14 15 16 24 32 34 39 305 316 322 324 331 329 331 337 348 350 345 348 341 338
284 290 296 303 315 326 334 339 344 347 351 354 357 359 2 3 4 6 9 9 10 11 15 17 25 32 39 36 316 306 15 304 321 331 330 328 338 345 350 349 351 351 352
284 292 294 299 307 318 325 332 340 345 348 351 353 357 1 4 6 10 12 15 15 13 21 24 40 49 51 48 51 5 48 67 323 352 314 322 328 340 345 350 353 353 352
285 285 290 297 300 307 317 326 332 340 343 347 352 357 1 6 10 15 17 20 20 23 37 45 70 109 79 65 62 57 65 74 80 72 315 314 329 333 340 349 350 352 353
283 286 288 292 299 305 310 321 328 336 342 346 353 359 3 6 13 19 20 23 23 29 48 99 156 173 130 105 78 74 73 70 91 79 27 117 315 319 336 346 351 352 355
289 287 292 292 294 301 306 315 325 334 338 343 353 2 7 11 16 20 27 28 28 36 75 159 200 197 198 174 92 87 82 74 79 85 83 89 86 134 225 347 350 354 355
288 294 291 291 292 298 304 309 317 328 332 341 352 1 10 15 18 29 36 37 40 51 89 182 193 176 146 122 102 93 88 88 86 92 82 92 96 94 110 98 340 345 351